Flag for Botswana Weather past 2 weeks in Francistown, Botswana

Now
82 °F

Passing clouds.


Feels Like: 81 °F
Forecast: 64 / 98 °F
Wind: 9 mph from East

Location: Francistown Airport

Current Time: Oct 23, 2014 at 8:54:26 PM

Latest Report: Oct 23, 2014 at 8:00 PM


Visibility: N/A

Pressure: 29.98 "Hg

Humidity: 30%

Dew point: 48 °F

Location of FrancistownLocation

Historic Weather in Francistown — Graph

°F

Francistown temperature yesterday

Maximum temperature yesterday: 91 °F (at 2:00 PM)
Minimum temperature yesterday: 64 °F (at 4:00 AM)
Average temperature yesterday: 74 °F

Past Weeks' High & Low Weather Summary

 TemperatureHumidityPressure
High100 °F (Oct 9, 2:00 PM)88% (Oct 11, 4:00 AM)30.24 "Hg (Oct 11, 4:00 AM)
Low55 °F (Oct 19, 3:00 AM)8% (Oct 9, 4:00 PM)29.71 "Hg (Oct 16, 2:00 PM)
Average77 °F39%30.05 "Hg
* Reported Oct 8 7:00 PM — Oct 23 7:00 PM, Francistown, Weather by CustomWeather, © 2014

Note: Actual official high and low records may vary slightly from our data, if they occured in-between our weather recording intervals... More about our weather records

Advertising

Francistown weather history for previous 24 hours

 ConditionsComfort  
Time TempWeatherWind HumidityBarometerVisibility
7:00 PM
Oct 23
84 °FPassing clouds.9 mph29%29.95 "HgN/A
6:00 PM88 °FPassing clouds.8 mph25%29.95 "HgN/A
5:00 PM91 °FScattered clouds.13 mph23%29.92 "HgN/A
4:00 PM93 °FScattered clouds.6 mph20%29.92 "HgN/A
3:00 PM93 °FScattered clouds.3 mph17%29.95 "HgN/A
2:00 PM91 °FPassing clouds.6 mph18%29.98 "HgN/A
1:00 PM91 °FSunny.8 mph15%30.01 "Hg10 mi
12:00 PM93 °FSunny.14 mph19%30.04 "Hg10 mi
11:00 AM90 °FSunny.5 mph24%30.07 "Hg10 mi
10:00 AM84 °FSunny.8 mph29%30.09 "Hg10 mi
9:00 AM77 °FSunny.7 mph42%30.12 "Hg10 mi
8:00 AM70 °FSunny.9 mph64%30.12 "Hg10 mi
7:00 AM64 °FSunny.13 mph64%30.12 "Hg10 mi
6:00 AM61 °FSunny.9 mph72%30.09 "Hg10 mi
5:00 AM63 °FSunny.9 mph68%30.12 "Hg10 mi
3:00 AM64 °FClear.9 mph64%30.12 "Hg10 mi
1:00 AM68 °FClear.14 mph56%30.15 "Hg10 mi
12:00 AM70 °FClear.15 mph53%30.12 "Hg10 mi
11:00 PM
Oct 22
72 °FClear.17 mph50%30.15 "Hg10 mi
9:00 PM79 °FClear.12 mph37%30.12 "Hg10 mi
8:00 PM81 °FClear.10 mph32%30.09 "Hg10 mi
Weather by CustomWeather, © 2014

See weather overviewHow to use our weather pages